Regional Weather Roundup
Issued by NWS Albany, NY

Home | Current Version | Previous Version | Text Only | Print | Product List | Glossary On
Versions: 1 2 3 4 5 6 7 8 9 10 11 12 13 14 15 16 17 18 19 20 21 22 23 24 25 26 27
000
ASUS41 KALY 290410
RWRALY

NEW YORK STATE HOURLY WEATHER ROUNDUP
NATIONAL WEATHER SERVICE ALBANY NY
1200 AM EDT THU SEP 29 2016

NOTE: "FAIR" INDICATES FEW OR NO CLOUDS BELOW 12,000 FEET WITH NO
SIGNIFICANT WEATHER AND/OR NO OBSTRUCTIONS TO VISIBILITY.

NYZ032-033-038>043-046>054-057>066-NYZ062>081-082-084-290500-
EAST


CITY           SKY/WX    TMP DP  RH WIND       PRES   REMARKS
ALBANY         PTCLDY    52  46  80 CALM      30.35S
GLENS FALLS    CLOUDY    49  44  83 CALM      30.36S
POUGHKEEPSIE   CLOUDY    56  49  77 N6        30.29S
NEWBURGH       CLOUDY    55  52  88 E8        30.31R
MONTGOMERY     CLOUDY    57  49  74 NE10      30.29S
WHITE PLAINS   CLOUDY    54  52  93 E6        30.28R FOG
ISLIP          DRIZZLE   58  57  97 NE14      30.26R FOG
NEW YORK CITY  LGT RAIN  60  56  86 NE22      30.25S
CENTRAL PARK   CLOUDY    57  53  86 NE9       30.28S
$$

NYZ005>009-017-018-044>046-055-056-290500-
CENTRAL


CITY           SKY/WX    TMP DP  RH WIND       PRES   REMARKS
FULTON         CLOUDY    59  51  75 VRB5      30.26R
SYRACUSE       PTCLDY    55  51  86 E10       30.25S
ROME           MOCLDY    56  49  77 SE12      30.32R
ELMIRA         CLOUDY    62  51  67 E9        30.19S
BINGHAMTON     CLOUDY    54  50  86 E13       30.24S
MONTICELLO     CLOUDY    52  46  82 E12G18    30.29R
$$

NYZ026>034-041>043-087-290500-
NORTH


CITY           SKY/WX    TMP DP  RH WIND       PRES   REMARKS
WATERTOWN      CLEAR     50  46  86 NE6       30.28S
FORT DRUM      NOT AVBL
OGDENSBURG     FAIR      55  52  88 E8        30.34R
MASSENA        CLEAR     54  49  83 NE9       30.37R
SARANAC LAKE   CLEAR     42  39  89 CALM      30.33S
PLATTSBURGH    MOCLDY    57  49  74 S6        30.38R
$$

NYZ001>004-010>016-019>021-085-290500-
WEST


CITY           SKY/WX    TMP DP  RH WIND       PRES   REMARKS
NIAGARA FALLS  MOCLDY    64  51  62 E14       30.14R
BUFFALO        MOCLDY    63  52  67 E10G21    30.14S
DUNKIRK        CLEAR     60  52  74 NE10      30.09S
JAMESTOWN      MOCLDY    59  48  67 E10       30.10R
WELLSVILLE     CLOUDY    58  50  75 SE12G20   30.19S
ROCHESTER      LGT RAIN  63  53  70 E12       30.20F
PENN YAN       CLOUDY    61  50  67 VRB5      30.22R
$$

             KEY
       WCI = WIND CHILL INDEX
       VSB = VISIBILITY
       HX  = HEAT INDEX
$$




USA.gov is the U.S. government's official web portal to all federal, state and local government web resources and services.